Location: Campillo
(40.8621°N, 4.2488°W)
Time: 01:42:58
(UTC+00:00)

Cosmos 2154 Rocket - Pass Details

Date: 28 September 2021
Orbit: 965 x 997 km, 82.9° (Epoch: 21 October)

Event Time Altitude Azimuth Distance (km) Brightness Sun altitude
Rises 20:27:26 0° 230° (SW) 3,705 7.4 -27.4°
Reaches altitude 10° 20:30:47 10° 248° (WSW) 2,761 6.9 -28.0°
Maximum altitude 20:35:09 19° 292° (WNW) 2,172 6.6 -28.7°
Drops below altitude 10° 20:39:32 10° 336° (NNW) 2,768 6.9 -29.5°
Sets 20:42:55 0° 354° (N) 3,718 7.4 -30.1°
